User: anonymous   Login
Location: Hepcat Sky Observatory
(29.9800°N, 95.6500°W)
Time: 23:15:13
(UTC-05:00)
Language:

Cosmos 2151 Rocket - Orbit

View from above orbital plane
View from above orbital plane
View from above satellite
View from above satellite

Ground track
Ground track

The orbit data is extracted from the following two-line orbital elements,

1 21423U 91042B   16120.74029163  .00000109  00000-0  11423-4 0  9995
2 21423  82.4944 347.7649 0018127 160.0189 200.1738 14.79627657341440
Epoch (UTC): 29 April 2016 17:46:01
Eccentricity: 0.0018127
inclination: 82.4944°
perigee height: 618 km
apogee height: 643 km
right ascension of ascending node: 347.7649°
argument of perigee: 160.0189°
revolutions per day: 14.79627657
mean anomaly at epoch: 200.1738°
orbit number at epoch: 34144

The dashed part of the orbit path shows where the satellite is in the earth's shadow,  

DLR